Date String (YYYY-MM-DD hh:mm:ss) UTC,Instrument flags,Ambient pressure (hPa),Sample flow (lpm),Bypass flow (lpm),Sample temperature (°C),Ambient temperature (°C),ASC tube jacket temperature (°C),LED temperature (°C),Box temperature (°C),Sample RH (%),Span deviation,Mass concentration (μg/m³),Mass concentration (μg/m³),Mass concentration (μg/m³)
DateTimeUTC,F1_M11,P_M11,Q1_M11,Q2_M11,T1_M11,T2_M11,T3_M11,T4_M11,T5_M11,U1_M11,ZSPAN_M11,X0_M11,X2_M11,X1_M11
2021-09-05 04:00:00,,0830.1,5.00,0.00,29.2,27.5,00.0,38.3,30.9,23.9,0001.6,0023.73,0016.45,0015.48
2021-09-05 04:01:00,,0830.1,5.01,0.00,29.2,27.7,00.0,38.3,31.0,23.8,0001.2,0023.58,0016.39,0015.49
2021-09-05 04:02:00,,0830.2,5.00,0.00,29.3,27.9,00.0,38.3,31.0,23.4,0001.2,0023.01,0016.40,0015.50
2021-09-05 04:03:00,,0830.1,4.99,0.00,29.3,28.1,00.0,38.4,31.1,23.3,0001.1,0022.95,0016.40,0015.51
2021-09-05 04:04:00,,0830.1,5.00,0.00,29.3,28.2,00.0,38.4,31.1,23.2,0001.1,0022.91,0016.37,0015.48
2021-09-05 04:05:00,,0830.1,5.00,0.00,29.4,28.3,00.0,38.4,31.2,23.2,0001.2,0023.11,0016.39,0015.49
2021-09-05 04:06:00,,0830.1,5.00,0.00,29.4,28.4,00.0,38.4,31.2,23.3,0001.3,0023.36,0016.44,0015.50
2021-09-05 04:07:00,,0830.1,5.00,0.00,29.5,28.5,00.0,38.4,31.3,23.4,0001.8,0023.44,0016.44,0015.51
2021-09-05 04:08:00,,0830.1,5.00,0.00,29.5,28.6,00.0,38.5,31.3,23.4,0001.8,0022.91,0016.47,0015.50
2021-09-05 04:09:00,,0830.1,5.00,0.00,29.5,28.6,00.0,38.5,31.4,23.4,0001.9,0022.58,0016.47,0015.50
2021-09-05 04:10:00,,0830.1,5.00,0.00,29.6,28.7,00.0,38.5,31.4,23.4,0002.0,0023.17,0016.51,0015.50
2021-09-05 04:11:00,,0830.1,5.01,0.00,29.6,28.8,00.0,38.5,31.4,23.3,0002.2,0023.57,0016.54,0015.51
2021-09-05 04:12:00,,0830.1,5.01,0.00,29.6,28.8,00.0,38.5,31.5,23.2,0002.1,0023.57,0016.54,0015.51
2021-09-05 04:13:00,,0830.1,5.01,0.00,29.7,28.8,00.0,38.6,31.5,23.1,0002.0,0024.07,0016.49,0015.50
2021-09-05 04:14:00,,0830.1,4.99,0.00,29.7,27.6,00.0,38.6,31.2,23.1,0002.0,0024.27,0016.46,0015.48
2021-09-05 04:15:00,,0830.1,5.01,0.00,29.5,26.1,00.0,38.6,30.8,23.3,0002.0,0024.40,0016.51,0015.54
2021-09-05 04:16:00,,0830.1,4.99,0.00,29.4,26.2,00.0,38.6,30.8,23.5,0001.7,0024.07,0016.51,0015.58
2021-09-05 04:17:00,,0830.1,5.00,0.00,29.3,26.6,00.0,38.5,30.9,23.6,0001.7,0024.00,0016.51,0015.59
2021-09-05 04:18:00,,0830.1,5.00,0.00,29.3,27.0,00.0,38.5,30.9,23.6,0001.8,0025.05,0016.55,0015.63
2021-09-05 04:19:00,,0830.1,4.99,0.00,29.3,27.3,00.0,38.5,31.0,23.6,0001.8,0025.37,0016.53,0015.66
2021-09-05 04:20:00,,0830.1,5.01,0.00,29.3,27.6,00.0,38.5,31.0,23.6,0001.5,0025.45,0016.57,0015.65
2021-09-05 04:21:00,,0830.1,5.00,0.00,29.4,27.9,00.0,38.5,31.1,23.6,0001.3,0025.10,0016.52,0015.66
2021-09-05 04:22:00,,0830.1,4.99,0.00,29.4,28.0,00.0,38.5,31.2,23.7,0001.1,0025.41,0016.55,0015.67
2021-09-05 04:23:00,,0830.1,5.00,0.00,29.4,28.2,00.0,38.5,31.2,23.5,0001.1,0025.62,0016.59,0015.65
2021-09-05 04:24:00,,0830.1,5.00,0.00,29.5,28.3,00.0,38.5,31.3,23.3,0001.1,0025.60,0016.62,0015.65
2021-09-05 04:25:00,,0830.1,4.99,0.00,29.5,28.4,00.0,38.5,31.3,23.3,0001.2,0025.67,0016.62,0015.65
2021-09-05 04:26:00,,0830.1,5.00,0.00,29.5,28.5,00.0,38.5,31.3,23.3,0001.2,0025.85,0016.63,0015.63
2021-09-05 04:27:00,,0830.2,5.01,0.00,29.6,28.6,00.0,38.5,31.4,23.2,0001.4,0025.74,0016.65,0015.64
2021-09-05 04:28:00,,0830.3,5.01,0.00,29.6,28.7,00.0,38.6,31.4,23.1,0001.3,0025.08,0016.66,0015.64
2021-09-05 04:29:00,,0830.2,4.98,0.00,29.6,28.7,00.0,38.6,31.4,23.1,0000.9,0024.33,0016.66,0015.61
2021-09-05 04:30:00,,0830.3,5.00,0.00,29.7,28.8,00.0,38.6,31.5,23.1,0000.8,0024.06,0016.64,0015.59
2021-09-05 04:31:00,,0830.2,5.01,0.00,29.7,28.8,00.0,38.6,31.5,23.0,0001.0,0023.99,0016.62,0015.57
2021-09-05 04:32:00,,0830.2,5.00,0.00,29.7,28.6,00.0,38.7,31.5,23.0,0001.0,0023.62,0016.62,0015.55
2021-09-05 04:33:00,,0830.3,5.00,0.00,29.7,26.9,00.0,38.6,31.1,23.1,0001.2,0022.71,0016.59,0015.55
2021-09-05 04:34:00,,0830.2,5.00,0.00,29.5,26.1,00.0,38.6,30.9,23.2,0001.4,0022.48,0016.56,0015.58
2021-09-05 04:35:00,,0830.2,5.01,0.00,29.4,26.3,00.0,38.6,30.9,23.3,0001.6,0022.03,0016.58,0015.58
2021-09-05 04:36:00,,0830.3,5.01,0.00,29.4,26.7,00.0,38.6,30.9,23.5,0001.6,0022.35,0016.61,0015.62
2021-09-05 04:37:00,,0830.3,4.99,0.00,29.3,27.1,00.0,38.5,31.0,24.0,0001.4,0022.13,0016.59,0015.63
2021-09-05 04:38:00,,0830.3,5.01,0.00,29.4,27.4,00.0,38.5,31.0,24.4,0001.4,0022.41,0016.62,0015.63
2021-09-05 04:39:00,,0830.4,5.00,0.00,29.4,27.7,00.0,38.5,31.1,24.0,0001.4,0022.65,0016.62,0015.65
2021-09-05 04:40:00,,0830.3,5.00,0.00,29.4,27.9,00.0,38.5,31.1,23.8,0001.3,0022.27,0016.60,0015.67
2021-09-05 04:41:00,,0830.3,5.01,0.00,29.4,28.1,00.0,38.5,31.2,23.5,0001.1,0022.12,0016.61,0015.70
2021-09-05 04:42:00,,0830.3,4.99,0.00,29.5,28.2,00.0,38.5,31.2,23.5,0001.1,0022.11,0016.59,0015.73
2021-09-05 04:43:00,,0830.3,5.00,0.00,29.5,28.3,00.0,38.5,31.3,23.4,0001.0,0021.95,0016.52,0015.72
2021-09-05 04:44:00,,0830.2,5.01,0.00,29.5,28.4,00.0,38.5,31.3,23.5,0000.8,0021.70,0016.47,0015.70
2021-09-05 04:45:00,,0830.2,5.00,0.00,29.6,28.5,00.0,38.6,31.3,23.6,0000.7,0021.66,0016.45,0015.70
2021-09-05 04:46:00,,0830.2,5.00,0.00,29.6,28.6,00.0,38.6,31.4,23.5,0000.7,0021.53,0016.45,0015.73
2021-09-05 04:47:00,,0830.3,5.00,0.00,29.6,28.7,00.0,38.6,31.4,23.5,0000.6,0021.28,0016.43,0015.73
2021-09-05 04:48:00,,0830.2,5.00,0.00,29.7,28.7,00.0,38.6,31.4,23.5,0000.6,0021.84,0016.45,0015.72
2021-09-05 04:49:00,,0830.2,5.01,0.00,29.7,28.8,00.0,38.6,31.5,23.5,0000.7,0022.03,0016.45,0015.72
2021-09-05 04:50:00,,0830.3,4.99,0.00,29.7,28.8,00.0,38.7,31.5,23.4,0000.8,0021.96,0016.48,0015.71
2021-09-05 04:51:00,,0830.3,5.00,0.00,29.8,28.9,00.0,38.7,31.6,23.0,0001.0,0022.05,0016.49,0015.69
2021-09-05 04:52:00,,0830.2,5.01,0.00,29.8,28.3,00.0,38.7,31.4,22.9,0001.3,0022.10,0016.50,0015.67
2021-09-05 04:53:00,,0830.2,4.99,0.00,29.6,26.4,00.0,38.7,30.9,23.1,0001.2,0022.35,0016.53,0015.66
2021-09-05 04:54:00,,0830.1,5.01,0.00,29.5,26.0,00.0,38.6,30.8,23.5,0001.4,0023.41,0016.62,0015.69
2021-09-05 04:55:00,,0830.1,5.00,0.00,29.4,26.4,00.0,38.6,30.9,23.9,0001.5,0023.66,0016.70,0015.70
2021-09-05 04:56:00,,0830.1,5.00,0.00,29.4,26.8,00.0,38.6,30.9,23.9,0001.3,0023.84,0016.76,0015.71
2021-09-05 04:57:00,,0830.1,5.01,0.00,29.4,27.2,00.0,38.6,31.0,23.9,0001.3,0024.26,0016.75,0015.69
2021-09-05 04:58:00,,0830.1,4.99,0.00,29.4,27.5,00.0,38.5,31.1,23.9,0001.2,0024.42,0016.78,0015.70
2021-09-05 04:59:00,,0830.1,5.00,0.00,29.4,27.7,00.0,38.5,31.1,23.8,0001.2,0023.81,0016.78,0015.71
